GW2287 Weather Reports


Display with metric or nautical units.
time (UTC)temp
F
wind
direction
speed
MPH
gust
MPH
rain 1hr
in
rain 24hr
in
rain mn
in
humidity
%
barometer
mb
20260503204505 65 172 8.0 20.0 0.00 0.00 0.00 49 1005.1
20260503203504 64 187 8.0 20.0 0.00 0.00 0.00 49 1005.2
20260503203004 64 177 9.0 20.0 0.00 0.00 0.00 53 1005.3
20260503202503 64 280 9.0 23.0 0.00 0.00 0.00 49 1005.4
20260503201503 65 288 7.0 17.0 0.00 0.00 0.00 50 1005.5
20260503200503 64 240 8.0 20.0 0.00 0.00 0.00 48 1005.7
20260503200005 64 261 10.0 18.0 0.00 0.00 0.00 48 1005.7
20260503195504 64 296 10.0 26.0 0.00 0.00 0.00 46 1005.9
20260503195003 65 234 8.0 26.0 0.00 0.00 0.00 47 1006.0
20260503194503 64 299 9.0 25.0 0.00 0.00 0.00 50 1006.0
20260503194004 64 271 9.0 25.0 0.00 0.00 0.00 46 1005.9
20260503193504 66 169 8.0 21.0 0.00 0.00 0.00 46 1006.1
20260503193004 65 236 8.0 21.0 0.00 0.00 0.00 45 1005.9
20260503192503 65 222 8.0 18.0 0.00 0.00 0.00 46 1006.0
20260503192005 65 220 9.0 21.0 0.00 0.00 0.00 45 1006.1
20260503191503 65 207 8.0 21.0 0.00 0.00 0.00 45 1006.0
20260503191003 65 252 7.0 16.0 0.00 0.00 0.00 47 1006.0
20260503190503 64 161 7.0 23.0 0.00 0.00 0.00 50 1006.1
20260503190005 64 257 8.0 23.0 0.00 0.00 0.00 46 1006.1
20260503185503 64 267 9.0 17.0 0.00 0.00 0.00 49 1006.3
20260503185003 63 293 9.0 21.0 0.00 0.00 0.00 49 1006.3
20260503184504 63 261 8.0 21.0 0.00 0.00 0.00 50 1006.4
20260503184004 63 209 7.0 15.0 0.00 0.00 0.00 54 1006.3
20260503183504 62 157 9.0 20.0 0.00 0.00 0.00 51 1006.4
20260503183003 62 167 9.0 20.0 0.00 0.00 0.00 52 1006.6
20260503182503 62 220 8.0 19.0 0.00 0.00 0.00 52 1006.7
20260503182005 62 201 8.0 19.0 0.00 0.00 0.00 53 1006.9
20260503180503 61 202 9.0 22.0 0.00 0.00 0.00 53 1007.3
20260503180007 60 153 10.0 22.0 0.00 0.00 0.00 52 1007.3
20260503175506 60 205 9.0 19.0 0.00 0.00 0.00 53 1007.4
20260503175003 60 148 8.0 22.0 0.00 0.00 0.00 55 1007.5
20260503174503 60 175 8.0 24.0 0.00 0.00 0.00 55 1007.5
20260503173503 59 180 8.0 19.0 0.00 0.00 0.00 58 1007.7
20260503173004 59 191 8.0 19.0 0.00 0.00 0.00 56 1007.8
20260503172504 59 219 8.0 24.0 0.00 0.00 0.00 59 1008.0
20260503172003 58 194 9.0 24.0 0.00 0.00 0.00 58 1008.0
20260503171503 58 140 9.0 18.0 0.00 0.00 0.00 58 1008.1
20260503171005 57 188 8.0 20.0 0.00 0.00 0.00 59 1008.2
20260503170503 56 167 7.0 16.0 0.00 0.00 0.00 59 1008.3
20260503150502 57 180 7.0 17.0 0.00 0.00 0.00 55 1009.4
20260503131002 51 259 5.0 15.0 0.00 0.00 0.00 60 1010.5
20260503130504 50 140 5.0 10.0 0.00 0.00 0.00 60 1010.5
20260503110502 49 202 3.0 10.0 0.00 0.00 0.00 56 1010.4
20260503090503 47 181 4.0 9.0 0.00 0.00 0.00 58 1011.3
20260503081502 48 214 4.0 12.0 0.00 0.00 0.00 55 1011.7
20260503081003 48 208 4.0 12.0 0.00 0.00 0.00 55 1011.7
20260503080502 48 187 3.0 7.0 0.00 0.00 0.00 56 1011.7
20260503072502 47 227 4.0 9.0 0.00 0.00 0.00 56 1011.9
20260503072003 47 218 3.0 9.0 0.00 0.00 0.00 56 1012.0
20260503071502 47 199 3.0 9.0 0.00 0.00 0.00 57 1012.1
20260503071001 47 255 3.0 9.0 0.00 0.00 0.00 57 1012.1
20260503070501 47 221 3.0 9.0 0.00 0.00 0.00 57 1012.2
20260503055003 46 211 2.0 7.0 0.00 0.00 0.00 58 1012.9
20260503054504 46 185 2.0 7.0 0.00 0.00 0.00 59 1013.0
20260503054004 46 241 3.0 9.0 0.00 0.00 0.00 59 1013.0
20260503053003 45 225 2.0 5.0 0.00 0.00 0.00 62 1013.0
20260503052505 44 241 2.0 5.0 0.00 0.00 0.00 63 1013.0
20260503052004 44 178 2.0 6.0 0.00 0.00 0.00 64 1013.0
20260503051504 43 212 2.0 6.0 0.00 0.00 0.00 66 1013.1
20260503050504 42 201 1.0 8.0 0.00 0.00 0.00 69 1013.1
20260503050009 41 201 1.0 8.0 0.00 0.00 0.00 70 1013.2
20260503045004 41 148 1.0 2.0 0.00 0.00 0.00 72 1013.2
20260503044004 41 148 1.0 3.0 0.00 0.00 0.00 73 1013.2
20260503043505 41 148 0.0 3.0 0.00 0.00 0.00 73 1013.2
20260503042503 41 148 0.0 0.0 0.00 0.00 0.00 73 1013.3
20260503041004 41 148 0.0 3.0 0.00 0.00 0.00 73 1013.4
20260503040504 41 148 0.0 3.0 0.00 0.00 0.00 73 1013.4
20260503040004 42 148 1.0 3.0 0.00 0.00 0.00 73 1013.5
20260503035502 42 148 1.0 3.0 0.00 0.00 0.00 73 1013.6
20260503035003 41 148 1.0 2.0 0.00 0.00 0.00 73 1013.7
20260503034502 41 148 1.0 2.0 0.00 0.00 0.00 74 1013.6
20260503034003 41 148 1.0 2.0 0.00 0.00 0.00 74 1013.6
20260503033004 41 148 0.0 1.0 0.00 0.00 0.00 73 1013.8
20260503032503 42 148 0.0 2.0 0.00 0.00 0.00 73 1013.8
20260503032003 42 148 0.0 2.0 0.00 0.00 0.00 73 1013.9
20260503031505 42 148 0.0 1.0 0.00 0.00 0.00 72 1013.9
20260503031004 42 148 0.0 1.0 0.00 0.00 0.00 71 1014.0
20260503030504 43 148 0.0 1.0 0.00 0.00 0.00 71 1014.0
20260503025503 43 148 0.0 1.0 0.00 0.00 0.00 70 1014.2
20260503025004 43 148 0.0 2.0 0.00 0.00 0.00 69 1014.2
20260503024004 44 148 0.0 2.0 0.00 0.00 0.00 68 1014.2
20260503023503 44 148 0.0 3.0 0.00 0.00 0.00 68 1014.3
20260503023004 44 148 0.0 3.0 0.00 0.00 0.00 67 1014.2
20260503022003 44 148 0.0 2.0 0.00 0.00 0.00 66 1014.2
20260503021005 45 148 1.0 2.0 0.00 0.00 0.00 65 1014.2
20260503020504 45 148 1.0 2.0 0.00 0.00 0.00 64 1014.3
20260503020006 45 148 1.0 3.0 0.00 0.00 0.00 64 1014.3
20260503014505 46 180 1.0 3.0 0.00 0.00 0.00 62 1014.1
20260503014004 46 122 1.0 3.0 0.00 0.00 0.00 61 1014.1
20260503013504 46 130 2.0 4.0 0.00 0.00 0.00 60 1014.0
20260503013005 47 144 2.0 5.0 0.00 0.00 0.00 60 1014.0
20260503012504 47 127 3.0 5.0 0.00 0.00 0.00 59 1013.9
20260503012004 47 140 2.0 8.0 0.00 0.00 0.00 59 1013.9
20260503011504 47 154 2.0 6.0 0.00 0.00 0.00 58 1013.9
20260503010504 48 155 2.0 8.0 0.00 0.00 0.00 57 1014.0
20260503010006 48 141 2.0 7.0 0.00 0.00 0.00 57 1014.0
20260503005503 48 137 2.0 7.0 0.00 0.00 0.00 57 1014.0
20260503005003 48 125 2.0 7.0 0.00 0.00 0.00 56 1014.1
20260503004504 49 127 2.0 8.0 0.00 0.00 0.00 55 1014.0
20260503003504 49 119 3.0 8.0 0.00 0.00 0.00 55 1014.0
20260503003005 50 102 2.0 8.0 0.00 0.00 0.00 53 1014.0
20260503002504 50 114 3.0 10.0 0.00 0.00 0.00 54 1014.0
20260503001503 51 179 3.0 8.0 0.00 0.00 0.00 53 1014.1
20260503001004 51 165 3.0 8.0 0.00 0.00 0.00 51 1014.1
20260503000504 51 146 3.0 7.0 0.00 0.00 0.00 51 1014.1
20260503000004 51 122 3.0 10.0 0.00 0.00 0.00 51 1014.1
20260502235503 51 109 3.0 10.0 0.00 0.00 0.00 50 1014.1
20260502235003 52 156 3.0 8.0 0.00 0.00 0.00 51 1014.2
20260502234504 52 79 3.0 8.0 0.00 0.00 0.00 50 1014.2
20260502234004 52 165 2.0 7.0 0.00 0.00 0.00 51 1014.3
20260502233502 52 205 2.0 7.0 0.00 0.00 0.00 50 1014.4
20260502233002 52 179 4.0 10.0 0.00 0.00 0.00 51 1014.4
20260502232502 52 93 5.0 10.0 0.00 0.00 0.00 50 1014.4
20260502232003 52 116 4.0 10.0 0.00 0.00 0.00 51 1014.4
20260502231503 52 92 4.0 8.0 0.00 0.00 0.00 51 1014.5
20260502231002 52 101 4.0 10.0 0.00 0.00 0.00 51 1014.5
20260502230005 52 132 3.0 8.0 0.00 0.00 0.00 52 1014.6
20260502225503 52 94 4.0 8.0 0.00 0.00 0.00 52 1014.7
20260502225002 52 72 4.0 9.0 0.00 0.00 0.00 51 1014.7
20260502224503 52 103 4.0 9.0 0.00 0.00 0.00 51 1014.8
20260502223503 52 83 3.0 9.0 0.00 0.00 0.00 52 1014.8
20260502223003 52 93 3.0 7.0 0.00 0.00 0.00 50 1014.9
20260502222503 52 134 4.0 8.0 0.00 0.00 0.00 53 1014.9
20260502222002 51 105 3.0 10.0 0.00 0.00 0.00 52 1015.1
20260502221502 51 96 3.0 8.0 0.00 0.00 0.00 54 1015.1
20260502221003 50 101 3.0 7.0 0.00 0.00 0.00 52 1015.0
20260502220004 50 91 4.0 9.0 0.00 0.00 0.00 54 1015.2
20260502215502 50 104 3.0 6.0 0.00 0.00 0.00 53 1015.4
20260502215003 50 115 3.0 7.0 0.00 0.00 0.00 51 1015.5
20260502213503 50 82 6.0 12.0 0.00 0.00 0.00 50 1015.4
20260502212502 51 136 5.0 11.0 0.00 0.00 0.00 50 1015.3
20260502212003 51 81 4.0 10.0 0.00 0.00 0.00 49 1015.4
20260502211504 52 95 5.0 10.0 0.00 0.00 0.00 50 1015.5
20260502210503 52 82 5.0 9.0 0.00 0.00 0.00 52 1015.5
20260502210004 52 119 4.0 9.0 0.00 0.00 0.00 48 1015.6
20260502205504 52 81 4.0 9.0 0.00 0.00 0.00 50 1015.7
20260502205003 51 118 4.0 11.0 0.00 0.00 0.00 51 1015.8